Time,TemperatureF,DewpointF,PressureIn,WindDirection,WindDirectionDegrees,WindSpeedMPH,WindSpeedGustMPH,Humidity,HourlyPrecipIn,Conditions,Clouds,dailyrainin,SoftwareType,DateUTC
2013-03-19 00:00:00,33.6,33.0,29.97,NNE,15,3.0,0.0,96,0.00,,,0.39,oem by Ross Wheeler,2013-03-19 04:00:00,
2013-03-19 00:05:00,33.6,33.0,29.97,ENE,61,3.0,0.0,96,0.00,,,0.01,oem by Ross Wheeler,2013-03-19 04:05:00,
2013-03-19 00:10:00,33.6,33.0,29.97,ENE,63,8.0,0.0,96,0.00,,,0.01,oem by Ross Wheeler,2013-03-19 04:10:00,
2013-03-19 00:15:00,33.6,33.0,29.96,NE,54,3.0,0.0,96,0.00,,,0.02,oem by Ross Wheeler,2013-03-19 04:15:00,
2013-03-19 00:20:00,33.8,33.0,29.96,ENE,73,6.0,0.0,96,0.00,,,0.02,oem by Ross Wheeler,2013-03-19 04:20:00,
2013-03-19 00:25:00,33.8,33.0,29.96,ENE,58,10.0,0.0,96,0.00,,,0.02,oem by Ross Wheeler,2013-03-19 04:25:00,
2013-03-19 00:30:00,33.8,33.0,29.93,ENE,75,9.0,0.0,96,0.00,,,0.03,oem by Ross Wheeler,2013-03-19 04:30:00,
2013-03-19 00:40:00,33.9,33.0,29.93,NE,45,3.0,0.0,96,0.00,,,0.04,oem by Ross Wheeler,2013-03-19 04:40:00,
2013-03-19 00:45:00,33.9,33.0,29.91,NE,44,6.0,0.0,96,0.00,,,0.04,oem by Ross Wheeler,2013-03-19 04:45:00,
2013-03-19 00:55:00,34.1,33.0,29.91,NE,42,6.0,0.0,96,0.00,,,0.05,oem by Ross Wheeler,2013-03-19 04:55:00,
2013-03-19 01:00:00,34.1,33.0,29.91,NE,48,3.0,0.0,96,0.00,,,0.05,oem by Ross Wheeler,2013-03-19 05:00:00,
2013-03-19 01:05:00,34.1,33.0,29.91,North,354,5.0,0.0,96,0.00,,,0.06,oem by Ross Wheeler,2013-03-19 05:05:00,
2013-03-19 01:15:00,34.2,33.0,29.90,ESE,109,1.0,0.0,96,0.00,,,0.06,oem by Ross Wheeler,2013-03-19 05:15:00,
2013-03-19 01:20:00,34.2,33.0,29.90,ENE,62,6.0,0.0,96,0.00,,,0.07,oem by Ross Wheeler,2013-03-19 05:20:00,
2013-03-19 01:30:00,34.1,33.0,29.88,NE,42,6.0,0.0,96,0.00,,,0.07,oem by Ross Wheeler,2013-03-19 05:30:00,
2013-03-19 01:40:00,34.1,33.0,29.88,NE,35,2.0,0.0,96,0.00,,,0.08,oem by Ross Wheeler,2013-03-19 05:40:00,
2013-03-19 01:45:00,34.1,33.0,29.87,ENE,62,6.0,0.0,96,0.00,,,0.08,oem by Ross Wheeler,2013-03-19 05:45:00,
2013-03-19 01:55:00,34.2,33.0,29.87,NE,41,6.0,0.0,96,0.00,,,0.09,oem by Ross Wheeler,2013-03-19 05:55:00,
2013-03-19 02:00:00,34.2,33.0,29.86,ENE,58,4.0,0.0,96,0.00,,,0.10,oem by Ross Wheeler,2013-03-19 06:00:00,
2013-03-19 02:10:00,34.2,33.0,29.86,NNE,21,5.0,0.0,96,0.00,,,0.10,oem by Ross Wheeler,2013-03-19 06:10:00,
2013-03-19 02:15:00,34.2,33.0,29.86,NE,34,2.0,0.0,96,0.00,,,0.11,oem by Ross Wheeler,2013-03-19 06:15:00,
2013-03-19 02:25:00,34.2,33.0,29.86,NE,54,3.0,0.0,96,0.00,,,0.12,oem by Ross Wheeler,2013-03-19 06:25:00,
2013-03-19 02:30:00,34.2,33.0,29.87,ENE,62,3.0,0.0,96,0.00,,,0.12,oem by Ross Wheeler,2013-03-19 06:30:00,
2013-03-19 02:40:00,34.2,33.0,29.87,NE,54,5.0,0.0,96,0.00,,,0.12,oem by Ross Wheeler,2013-03-19 06:40:00,
2013-03-19 02:45:00,34.2,33.0,29.86,North,356,4.0,0.0,96,0.00,,,0.13,oem by Ross Wheeler,2013-03-19 06:45:00,
2013-03-19 02:55:00,34.2,33.0,29.86,ENE,59,4.0,0.0,96,0.00,,,0.14,oem by Ross Wheeler,2013-03-19 06:55:00,
2013-03-19 03:00:00,34.1,33.0,29.84,NE,42,4.0,0.0,96,0.00,,,0.14,oem by Ross Wheeler,2013-03-19 07:00:00,
2013-03-19 03:10:00,34.1,33.0,29.84,NE,37,3.0,0.0,96,0.00,,,0.14,oem by Ross Wheeler,2013-03-19 07:10:00,
2013-03-19 03:15:00,34.1,33.0,29.84,ENE,63,1.0,0.0,96,0.00,,,0.14,oem by Ross Wheeler,2013-03-19 07:15:00,
2013-03-19 03:25:00,33.9,33.0,29.84,NNE,18,2.0,0.0,96,0.00,,,0.15,oem by Ross Wheeler,2013-03-19 07:25:00,
2013-03-19 03:30:00,33.9,33.0,29.83,NE,54,3.0,0.0,96,0.00,,,0.15,oem by Ross Wheeler,2013-03-19 07:30:00,
2013-03-19 03:40:00,33.9,33.0,29.83,NE,44,2.0,0.0,96,0.00,,,0.15,oem by Ross Wheeler,2013-03-19 07:40:00,
2013-03-19 03:45:00,33.9,33.0,29.81,NE,45,3.0,0.0,96,0.00,,,0.16,oem by Ross Wheeler,2013-03-19 07:45:00,
2013-03-19 03:55:00,33.9,33.0,29.81,NE,48,3.0,0.0,96,0.00,,,0.16,oem by Ross Wheeler,2013-03-19 07:55:00,
2013-03-19 04:00:00,33.9,33.0,29.80,NNE,25,4.0,0.0,96,0.00,,,0.16,oem by Ross Wheeler,2013-03-19 08:00:00,
2013-03-19 04:10:00,34.1,33.0,29.80,NNE,28,8.0,0.0,96,0.00,,,0.16,oem by Ross Wheeler,2013-03-19 08:10:00,
2013-03-19 04:15:00,34.1,33.0,29.79,NNE,25,3.0,0.0,96,0.00,,,0.16,oem by Ross Wheeler,2013-03-19 08:15:00,
2013-03-19 04:25:00,34.1,33.0,29.79,NE,47,2.0,0.0,96,0.00,,,0.16,oem by Ross Wheeler,2013-03-19 08:25:00,
2013-03-19 04:30:00,34.1,33.0,29.79,North,359,6.0,0.0,96,0.00,,,0.17,oem by Ross Wheeler,2013-03-19 08:30:00,
2013-03-19 04:40:00,34.1,33.0,29.79,North,10,5.0,0.0,96,0.00,,,0.17,oem by Ross Wheeler,2013-03-19 08:40:00,
2013-03-19 04:45:00,34.1,33.0,29.78,NE,35,5.0,0.0,96,0.00,,,0.17,oem by Ross Wheeler,2013-03-19 08:45:00,
2013-03-19 04:55:00,34.2,33.0,29.78,NE,56,3.0,0.0,96,0.00,,,0.17,oem by Ross Wheeler,2013-03-19 08:55:00,
2013-03-19 05:00:00,34.2,33.0,29.78,NNE,20,3.0,0.0,96,0.00,,,0.17,oem by Ross Wheeler,2013-03-19 09:00:00,
2013-03-19 05:10:00,34.4,33.0,29.78,NNE,30,3.0,0.0,96,0.00,,,0.17,oem by Ross Wheeler,2013-03-19 09:10:00,
2013-03-19 05:15:00,34.4,33.0,29.78,NNE,28,2.0,0.0,96,0.00,,,0.17,oem by Ross Wheeler,2013-03-19 09:15:00,
2013-03-19 05:25:00,34.5,34.0,29.78,NE,44,2.0,0.0,96,0.00,,,0.17,oem by Ross Wheeler,2013-03-19 09:25:00,
2013-03-19 05:30:00,34.7,34.0,29.78,NNE,18,1.0,0.0,97,0.00,,,0.17,oem by Ross Wheeler,2013-03-19 09:30:00,
2013-03-19 05:40:00,34.7,34.0,29.78,NNE,31,1.0,0.0,97,0.00,,,0.18,oem by Ross Wheeler,2013-03-19 09:40:00,
2013-03-19 05:45:00,34.8,34.0,29.77,North,11,3.0,0.0,96,0.00,,,0.18,oem by Ross Wheeler,2013-03-19 09:45:00,
2013-03-19 05:55:00,35.0,34.0,29.77,NE,42,2.0,0.0,96,0.00,,,0.18,oem by Ross Wheeler,2013-03-19 09:55:00,
2013-03-19 06:00:00,35.0,34.0,29.75,NE,35,1.0,0.0,96,0.00,,,0.18,oem by Ross Wheeler,2013-03-19 10:00:00,
2013-03-19 06:10:00,35.0,34.0,29.75,NE,51,1.0,0.0,96,0.00,,,0.18,oem by Ross Wheeler,2013-03-19 10:10:00,
2013-03-19 06:15:00,35.1,34.0,29.73,ENE,63,5.0,0.0,96,0.00,,,0.18,oem by Ross Wheeler,2013-03-19 10:15:00,
2013-03-19 06:25:00,35.1,34.0,29.73,NE,42,5.0,0.0,96,0.00,,,0.18,oem by Ross Wheeler,2013-03-19 10:25:00,
2013-03-19 06:30:00,35.1,34.0,29.73,NNE,18,8.0,0.0,96,0.00,,,0.18,oem by Ross Wheeler,2013-03-19 10:30:00,
2013-03-19 06:40:00,35.1,34.0,29.73,NNE,25,1.0,0.0,96,0.00,,,0.18,oem by Ross Wheeler,2013-03-19 10:40:00,
2013-03-19 06:45:00,35.1,34.0,29.75,North,7,1.0,0.0,96,0.00,,,0.18,oem by Ross Wheeler,2013-03-19 10:45:00,
2013-03-19 06:55:00,35.1,34.0,29.75,NNE,31,2.0,0.0,96,0.00,,,0.18,oem by Ross Wheeler,2013-03-19 10:55:00,
2013-03-19 07:00:00,35.2,34.0,29.75,NNE,21,5.0,0.0,96,0.00,,,0.18,oem by Ross Wheeler,2013-03-19 11:00:00,
2013-03-19 07:10:00,35.4,34.0,29.75,NNE,30,0.0,0.0,96,0.00,,,0.18,oem by Ross Wheeler,2013-03-19 11:10:00,
2013-03-19 07:15:00,35.4,34.0,29.74,North,3,2.0,0.0,96,0.00,,,0.18,oem by Ross Wheeler,2013-03-19 11:15:00,
2013-03-19 07:25:00,35.4,34.0,29.74,NNE,17,2.0,0.0,96,0.00,,,0.18,oem by Ross Wheeler,2013-03-19 11:25:00,
2013-03-19 07:30:00,35.5,35.0,29.74,NNE,24,2.0,0.0,96,0.00,,,0.18,oem by Ross Wheeler,2013-03-19 11:30:00,
2013-03-19 07:40:00,35.5,35.0,29.74,NNE,24,2.0,0.0,96,0.00,,,0.18,oem by Ross Wheeler,2013-03-19 11:40:00,
2013-03-19 07:45:00,35.5,35.0,29.74,NE,34,2.0,0.0,96,0.00,,,0.18,oem by Ross Wheeler,2013-03-19 11:45:00,
2013-03-19 07:55:00,35.7,35.0,29.74,NNE,28,1.0,0.0,96,0.00,,,0.18,oem by Ross Wheeler,2013-03-19 11:55:00,
2013-03-19 08:00:00,35.8,35.0,29.73,ENE,66,4.0,0.0,96,0.00,,,0.18,oem by Ross Wheeler,2013-03-19 12:00:00,
2013-03-19 08:10:00,36.0,35.0,29.73,NNE,15,2.0,0.0,96,0.00,,,0.18,oem by Ross Wheeler,2013-03-19 12:10:00,
2013-03-19 08:15:00,36.0,35.0,29.73,NNE,28,3.0,0.0,96,0.00,,,0.18,oem by Ross Wheeler,2013-03-19 12:15:00,
2013-03-19 08:25:00,36.0,35.0,29.73,NNE,17,0.0,0.0,96,0.00,,,0.18,oem by Ross Wheeler,2013-03-19 12:25:00,
2013-03-19 08:30:00,36.0,35.0,29.73,NNE,31,3.0,0.0,96,0.00,,,0.18,oem by Ross Wheeler,2013-03-19 12:30:00,
2013-03-19 08:40:00,36.1,35.0,29.73,NNE,27,3.0,0.0,96,0.00,,,0.18,oem by Ross Wheeler,2013-03-19 12:40:00,
2013-03-19 08:45:00,36.0,35.0,29.71,ENE,66,5.0,0.0,96,0.00,,,0.18,oem by Ross Wheeler,2013-03-19 12:45:00,
2013-03-19 08:55:00,36.0,35.0,29.71,ENE,58,3.0,0.0,96,0.00,,,0.18,oem by Ross Wheeler,2013-03-19 12:55:00,
2013-03-19 09:00:00,36.0,35.0,29.72,ENE,61,1.0,0.0,96,0.00,,,0.18,oem by Ross Wheeler,2013-03-19 13:00:00,
2013-03-19 09:10:00,36.0,35.0,29.72,NE,37,0.0,0.0,96,0.00,,,0.18,oem by Ross Wheeler,2013-03-19 13:10:00,
2013-03-19 09:15:00,36.0,35.0,29.73,NNE,24,3.0,0.0,96,0.00,,,0.18,oem by Ross Wheeler,2013-03-19 13:15:00,
2013-03-19 09:25:00,36.0,35.0,29.73,NNE,21,2.0,0.0,96,0.00,,,0.18,oem by Ross Wheeler,2013-03-19 13:25:00,
2013-03-19 09:30:00,36.0,35.0,29.72,NNE,28,2.0,0.0,96,0.00,,,0.18,oem by Ross Wheeler,2013-03-19 13:30:00,
2013-03-19 09:40:00,36.1,35.0,29.72,NNE,24,2.0,0.0,96,0.00,,,0.19,oem by Ross Wheeler,2013-03-19 13:40:00,
2013-03-19 09:45:00,36.1,35.0,29.70,North,11,7.0,0.0,96,0.00,,,0.19,oem by Ross Wheeler,2013-03-19 13:45:00,
2013-03-19 09:55:00,36.2,35.0,29.70,NNE,25,2.0,0.0,96,0.00,,,0.19,oem by Ross Wheeler,2013-03-19 13:55:00,
2013-03-19 10:00:00,36.2,36.0,29.70,NNE,25,1.0,0.0,97,0.00,,,0.19,oem by Ross Wheeler,2013-03-19 14:00:00,
2013-03-19 10:10:00,36.4,36.0,29.70,North,356,3.0,0.0,97,0.00,,,0.19,oem by Ross Wheeler,2013-03-19 14:10:00,
2013-03-19 10:15:00,36.2,36.0,29.72,NNW,343,0.0,0.0,97,0.00,,,0.19,oem by Ross Wheeler,2013-03-19 14:15:00,
2013-03-19 10:25:00,36.2,36.0,29.72,NW,319,2.0,0.0,97,0.00,,,0.19,oem by Ross Wheeler,2013-03-19 14:25:00,
2013-03-19 10:30:00,36.0,35.0,29.73,NW,319,2.0,0.0,96,0.00,,,0.19,oem by Ross Wheeler,2013-03-19 14:30:00,
2013-03-19 10:40:00,35.8,35.0,29.73,NW,320,0.0,0.0,96,0.00,,,0.20,oem by Ross Wheeler,2013-03-19 14:40:00,
2013-03-19 10:45:00,35.7,35.0,29.73,NW,319,0.0,0.0,96,0.00,,,0.20,oem by Ross Wheeler,2013-03-19 14:45:00,
2013-03-19 10:55:00,35.5,35.0,29.73,NW,320,2.0,0.0,96,0.00,,,0.21,oem by Ross Wheeler,2013-03-19 14:55:00,
2013-03-19 11:00:00,35.5,35.0,29.73,NW,319,0.0,0.0,97,0.00,,,0.22,oem by Ross Wheeler,2013-03-19 15:00:00,
2013-03-19 11:10:00,35.5,35.0,29.73,NW,320,1.0,0.0,97,0.00,,,0.22,oem by Ross Wheeler,2013-03-19 15:10:00,
2013-03-19 11:15:00,35.5,35.0,29.75,NW,320,1.0,0.0,97,0.00,,,0.23,oem by Ross Wheeler,2013-03-19 15:15:00,
2013-03-19 11:25:00,35.7,35.0,29.75,NW,320,1.0,0.0,97,0.00,,,0.24,oem by Ross Wheeler,2013-03-19 15:25:00,
2013-03-19 11:30:00,35.7,35.0,29.73,NNW,342,2.0,0.0,97,0.00,,,0.25,oem by Ross Wheeler,2013-03-19 15:30:00,
2013-03-19 11:40:00,35.8,35.0,29.73,NNW,342,0.0,0.0,97,0.00,,,0.26,oem by Ross Wheeler,2013-03-19 15:40:00,
2013-03-19 11:45:00,35.8,35.0,29.72,NNE,18,0.0,0.0,97,0.00,,,0.26,oem by Ross Wheeler,2013-03-19 15:45:00,
2013-03-19 11:55:00,36.0,35.0,29.72,NNW,329,3.0,0.0,97,0.00,,,0.27,oem by Ross Wheeler,2013-03-19 15:55:00,
2013-03-19 12:00:00,35.8,35.0,29.73,NNW,339,2.0,0.0,97,0.00,,,0.28,oem by Ross Wheeler,2013-03-19 16:00:00,
2013-03-19 12:10:00,35.8,35.0,29.73,North,10,1.0,0.0,97,0.00,,,0.31,oem by Ross Wheeler,2013-03-19 16:10:00,
2013-03-19 12:15:00,35.8,35.0,29.72,WNW,287,0.0,0.0,97,0.00,,,0.31,oem by Ross Wheeler,2013-03-19 16:15:00,
2013-03-19 12:25:00,37.0,36.0,29.72,NNW,327,1.0,0.0,97,0.00,,,0.32,oem by Ross Wheeler,2013-03-19 16:25:00,
2013-03-19 12:30:00,37.5,37.0,29.72,NNW,333,2.0,0.0,97,0.00,,,0.32,oem by Ross Wheeler,2013-03-19 16:30:00,
2013-03-19 12:40:00,37.5,37.0,29.72,NNW,347,2.0,0.0,97,0.00,,,0.32,oem by Ross Wheeler,2013-03-19 16:40:00,
2013-03-19 12:45:00,37.8,37.0,29.71,North,1,1.0,0.0,97,0.00,,,0.32,oem by Ross Wheeler,2013-03-19 16:45:00,
2013-03-19 12:55:00,38.0,37.0,29.71,North,7,2.0,0.0,97,0.00,,,0.32,oem by Ross Wheeler,2013-03-19 16:55:00,
2013-03-19 13:00:00,37.8,37.0,29.71,NNW,340,1.0,0.0,97,0.00,,,0.32,oem by Ross Wheeler,2013-03-19 17:00:00,
2013-03-19 13:10:00,38.0,37.0,29.71,NNE,25,0.0,0.0,97,0.00,,,0.32,oem by Ross Wheeler,2013-03-19 17:10:00,
2013-03-19 13:15:00,38.0,37.0,29.71,North,6,0.0,0.0,96,0.00,,,0.32,oem by Ross Wheeler,2013-03-19 17:15:00,
2013-03-19 13:25:00,37.8,37.0,29.71,NNW,343,0.0,0.0,96,0.00,,,0.32,oem by Ross Wheeler,2013-03-19 17:25:00,
2013-03-19 13:30:00,37.8,37.0,29.71,NNW,343,0.0,0.0,96,0.00,,,0.32,oem by Ross Wheeler,2013-03-19 17:30:00,
2013-03-19 13:40:00,37.7,37.0,29.71,NW,322,1.0,0.0,96,0.00,,,0.32,oem by Ross Wheeler,2013-03-19 17:40:00,
2013-03-19 13:45:00,37.8,37.0,29.69,NW,322,1.0,0.0,96,0.00,,,0.32,oem by Ross Wheeler,2013-03-19 17:45:00,
2013-03-19 13:55:00,38.4,37.0,29.69,NNW,346,2.0,0.0,95,0.00,,,0.32,oem by Ross Wheeler,2013-03-19 17:55:00,
2013-03-19 14:00:00,38.5,37.0,29.69,NNW,346,0.0,0.0,95,0.00,,,0.32,oem by Ross Wheeler,2013-03-19 18:00:00,
2013-03-19 14:10:00,38.5,37.0,29.69,NW,313,2.0,0.0,93,0.00,,,0.32,oem by Ross Wheeler,2013-03-19 18:10:00,
2013-03-19 14:15:00,38.5,36.0,29.68,NW,316,2.0,0.0,92,0.00,,,0.32,oem by Ross Wheeler,2013-03-19 18:15:00,
2013-03-19 14:25:00,38.8,37.0,29.68,NW,322,1.0,0.0,92,0.00,,,0.32,oem by Ross Wheeler,2013-03-19 18:25:00,
2013-03-19 14:30:00,39.1,37.0,29.68,NW,322,1.0,0.0,91,0.00,,,0.32,oem by Ross Wheeler,2013-03-19 18:30:00,
2013-03-19 14:40:00,39.3,36.0,29.68,WNW,294,1.0,0.0,89,0.00,,,0.32,oem by Ross Wheeler,2013-03-19 18:40:00,
2013-03-19 14:45:00,39.5,37.0,29.68,NW,311,3.0,0.0,89,0.00,,,0.32,oem by Ross Wheeler,2013-03-19 18:45:00,
2013-03-19 14:55:00,40.1,37.0,29.68,NW,325,3.0,0.0,88,0.00,,,0.32,oem by Ross Wheeler,2013-03-19 18:55:00,
2013-03-19 15:00:00,40.7,38.0,29.68,NW,325,1.0,0.0,88,0.00,,,0.32,oem by Ross Wheeler,2013-03-19 19:00:00,
2013-03-19 15:10:00,41.7,38.0,29.68,NNW,330,3.0,0.0,86,0.00,,,0.32,oem by Ross Wheeler,2013-03-19 19:10:00,
2013-03-19 15:15:00,41.5,37.0,29.68,NW,326,5.0,0.0,85,0.00,,,0.32,oem by Ross Wheeler,2013-03-19 19:15:00,
2013-03-19 15:25:00,41.5,37.0,29.68,WNW,299,2.0,0.0,83,0.00,,,0.32,oem by Ross Wheeler,2013-03-19 19:25:00,
2013-03-19 15:30:00,41.7,37.0,29.69,West,267,4.0,0.0,83,0.00,,,0.32,oem by Ross Wheeler,2013-03-19 19:30:00,
2013-03-19 15:40:00,41.8,37.0,29.69,NW,312,2.0,0.0,82,0.00,,,0.32,oem by Ross Wheeler,2013-03-19 19:40:00,
2013-03-19 15:45:00,42.4,37.0,29.68,WNW,295,3.0,0.0,82,0.00,,,0.32,oem by Ross Wheeler,2013-03-19 19:45:00,
2013-03-19 15:55:00,43.3,37.0,29.68,NW,318,3.0,0.0,78,0.00,,,0.32,oem by Ross Wheeler,2013-03-19 19:55:00,
2013-03-19 16:00:00,43.4,37.0,29.68,NNW,332,3.0,0.0,78,0.00,,,0.32,oem by Ross Wheeler,2013-03-19 20:00:00,
2013-03-19 16:10:00,44.1,36.0,29.68,NNW,343,3.0,0.0,73,0.00,,,0.32,oem by Ross Wheeler,2013-03-19 20:10:00,
2013-03-19 16:15:00,44.3,36.0,29.68,NNW,329,5.0,0.0,73,0.00,,,0.32,oem by Ross Wheeler,2013-03-19 20:15:00,
2013-03-19 16:25:00,44.7,36.0,29.68,NW,315,5.0,0.0,71,0.00,,,0.32,oem by Ross Wheeler,2013-03-19 20:25:00,
2013-03-19 16:30:00,44.9,36.0,29.67,NNW,340,3.0,0.0,70,0.00,,,0.32,oem by Ross Wheeler,2013-03-19 20:30:00,
2013-03-19 16:40:00,45.0,35.0,29.67,NNW,330,5.0,0.0,69,0.00,,,0.32,oem by Ross Wheeler,2013-03-19 20:40:00,
2013-03-19 16:45:00,45.3,36.0,29.68,WNW,295,2.0,0.0,70,0.00,,,0.32,oem by Ross Wheeler,2013-03-19 20:45:00,
2013-03-19 16:55:00,45.7,36.0,29.68,West,278,5.0,0.0,68,0.00,,,0.32,oem by Ross Wheeler,2013-03-19 20:55:00,
2013-03-19 17:00:00,46.0,35.0,29.68,NNW,327,2.0,0.0,66,0.00,,,0.32,oem by Ross Wheeler,2013-03-19 21:00:00,
2013-03-19 17:10:00,46.0,34.0,29.68,WNW,295,2.0,0.0,64,0.00,,,0.32,oem by Ross Wheeler,2013-03-19 21:10:00,
2013-03-19 17:15:00,46.2,35.0,29.68,NW,309,3.0,0.0,64,0.00,,,0.32,oem by Ross Wheeler,2013-03-19 21:15:00,
2013-03-19 17:25:00,46.2,35.0,29.68,NW,320,2.0,0.0,64,0.00,,,0.32,oem by Ross Wheeler,2013-03-19 21:25:00,
2013-03-19 17:30:00,46.3,35.0,29.67,WSW,250,0.0,0.0,65,0.00,,,0.32,oem by Ross Wheeler,2013-03-19 21:30:00,
2013-03-19 17:40:00,46.5,34.0,29.67,WNW,292,3.0,0.0,62,0.00,,,0.32,oem by Ross Wheeler,2013-03-19 21:40:00,
2013-03-19 17:45:00,46.3,34.0,29.67,West,278,1.0,0.0,62,0.00,,,0.32,oem by Ross Wheeler,2013-03-19 21:45:00,
2013-03-19 17:55:00,46.5,34.0,29.67,NNW,337,2.0,0.0,63,0.00,,,0.32,oem by Ross Wheeler,2013-03-19 21:55:00,
2013-03-19 18:00:00,46.3,34.0,29.67,West,275,4.0,0.0,62,0.00,,,0.32,oem by Ross Wheeler,2013-03-19 22:00:00,
2013-03-19 18:10:00,46.5,34.0,29.67,West,275,2.0,0.0,61,0.00,,,0.32,oem by Ross Wheeler,2013-03-19 22:10:00,
2013-03-19 18:15:00,46.3,33.0,29.67,West,278,3.0,0.0,60,0.00,,,0.32,oem by Ross Wheeler,2013-03-19 22:15:00,
2013-03-19 18:25:00,46.0,33.0,29.67,WNW,288,0.0,0.0,62,0.00,,,0.32,oem by Ross Wheeler,2013-03-19 22:25:00,
2013-03-19 18:30:00,45.7,33.0,29.68,West,274,3.0,0.0,61,0.00,,,0.32,oem by Ross Wheeler,2013-03-19 22:30:00,
2013-03-19 18:40:00,45.4,33.0,29.68,West,263,0.0,0.0,62,0.00,,,0.32,oem by Ross Wheeler,2013-03-19 22:40:00,
2013-03-19 18:45:00,45.0,33.0,29.68,West,263,0.0,0.0,62,0.00,,,0.32,oem by Ross Wheeler,2013-03-19 22:45:00,
2013-03-19 18:55:00,44.4,33.0,29.68,West,263,0.0,0.0,65,0.00,,,0.32,oem by Ross Wheeler,2013-03-19 22:55:00,
2013-03-19 19:00:00,44.0,34.0,29.68,West,263,0.0,0.0,68,0.00,,,0.32,oem by Ross Wheeler,2013-03-19 23:00:00,
2013-03-19 19:10:00,42.8,33.0,29.68,West,263,1.0,0.0,68,0.00,,,0.32,oem by Ross Wheeler,2013-03-19 23:10:00,
2013-03-19 19:15:00,43.0,32.0,29.69,WNW,284,1.0,0.0,66,0.00,,,0.32,oem by Ross Wheeler,2013-03-19 23:15:00,
2013-03-19 19:25:00,43.1,32.0,29.69,WNW,284,1.0,0.0,65,0.00,,,0.32,oem by Ross Wheeler,2013-03-19 23:25:00,
2013-03-19 19:30:00,43.0,32.0,29.69,WNW,284,1.0,0.0,66,0.00,,,0.32,oem by Ross Wheeler,2013-03-19 23:30:00,
2013-03-19 19:40:00,42.4,33.0,29.69,WNW,284,0.0,0.0,69,0.00,,,0.32,oem by Ross Wheeler,2013-03-19 23:40:00,
2013-03-19 19:45:00,42.1,33.0,29.69,WNW,284,0.0,0.0,70,0.00,,,0.32,oem by Ross Wheeler,2013-03-19 23:45:00,
2013-03-19 19:55:00,40.8,33.0,29.69,WNW,284,1.0,0.0,74,0.00,,,0.32,oem by Ross Wheeler,2013-03-19 23:55:00,
2013-03-19 20:00:00,40.1,33.0,29.70,NW,315,0.0,0.0,75,0.00,,,0.32,oem by Ross Wheeler,2013-03-20 00:00:00,
2013-03-19 20:10:00,39.4,33.0,29.70,NW,315,0.0,0.0,77,0.00,,,0.32,oem by Ross Wheeler,2013-03-20 00:10:00,
2013-03-19 20:15:00,39.3,33.0,29.70,NW,315,0.0,0.0,77,0.00,,,0.32,oem by Ross Wheeler,2013-03-20 00:15:00,
2013-03-19 20:25:00,38.7,33.0,29.70,NW,315,0.0,0.0,80,0.00,,,0.32,oem by Ross Wheeler,2013-03-20 00:25:00,
2013-03-19 20:30:00,38.4,33.0,29.71,NW,315,0.0,0.0,81,0.00,,,0.32,oem by Ross Wheeler,2013-03-20 00:30:00,
2013-03-19 20:40:00,38.1,33.0,29.71,NW,315,3.0,0.0,82,0.00,,,0.32,oem by Ross Wheeler,2013-03-20 00:40:00,
2013-03-19 20:45:00,38.7,34.0,29.72,NNW,329,2.0,0.0,82,0.00,,,0.32,oem by Ross Wheeler,2013-03-20 00:45:00,
2013-03-19 20:55:00,39.3,34.0,29.72,NNW,329,3.0,0.0,80,0.00,,,0.32,oem by Ross Wheeler,2013-03-20 00:55:00,
2013-03-19 21:00:00,39.5,34.0,29.73,NW,325,1.0,0.0,79,0.00,,,0.32,oem by Ross Wheeler,2013-03-20 01:00:00,
2013-03-19 21:10:00,40.3,32.0,29.73,WNW,296,4.0,0.0,73,0.00,,,0.32,oem by Ross Wheeler,2013-03-20 01:10:00,
2013-03-19 21:15:00,40.3,32.0,29.73,WNW,296,5.0,0.0,72,0.00,,,0.32,oem by Ross Wheeler,2013-03-20 01:15:00,
2013-03-19 21:25:00,41.4,30.0,29.73,West,275,7.0,0.0,63,0.00,,,0.32,oem by Ross Wheeler,2013-03-20 01:25:00,
2013-03-19 21:30:00,41.5,29.0,29.73,West,278,6.0,0.0,62,0.00,,,0.32,oem by Ross Wheeler,2013-03-20 01:30:00,
2013-03-19 21:40:00,41.5,28.0,29.73,NW,305,2.0,0.0,59,0.00,,,0.32,oem by Ross Wheeler,2013-03-20 01:40:00,
2013-03-19 21:45:00,41.4,27.0,29.74,NW,311,2.0,0.0,58,0.00,,,0.32,oem by Ross Wheeler,2013-03-20 01:45:00,
2013-03-19 21:55:00,41.5,28.0,29.74,NNW,342,5.0,0.0,60,0.00,,,0.32,oem by Ross Wheeler,2013-03-20 01:55:00,
2013-03-19 22:00:00,41.3,31.0,29.75,NNW,333,1.0,0.0,66,0.00,,,0.32,oem by Ross Wheeler,2013-03-20 02:00:00,
2013-03-19 22:10:00,40.4,31.0,29.75,NNW,335,2.0,0.0,69,0.00,,,0.32,oem by Ross Wheeler,2013-03-20 02:10:00,
2013-03-19 22:15:00,40.0,31.0,29.76,NW,309,1.0,0.0,69,0.00,,,0.32,oem by Ross Wheeler,2013-03-20 02:15:00,
2013-03-19 22:25:00,39.4,31.0,29.76,NW,322,2.0,0.0,71,0.00,,,0.32,oem by Ross Wheeler,2013-03-20 02:25:00,
2013-03-19 22:30:00,39.3,31.0,29.76,NNW,327,3.0,0.0,71,0.00,,,0.32,oem by Ross Wheeler,2013-03-20 02:30:00,
2013-03-19 22:40:00,39.1,30.0,29.76,NNW,343,5.0,0.0,69,0.00,,,0.32,oem by Ross Wheeler,2013-03-20 02:40:00,
2013-03-19 22:45:00,39.1,29.0,29.76,NW,311,2.0,0.0,68,0.00,,,0.32,oem by Ross Wheeler,2013-03-20 02:45:00,
2013-03-19 22:55:00,39.0,29.0,29.76,NNW,332,1.0,0.0,67,0.00,,,0.32,oem by Ross Wheeler,2013-03-20 02:55:00,
2013-03-19 23:00:00,38.7,28.0,29.77,WNW,299,2.0,0.0,66,0.00,,,0.32,oem by Ross Wheeler,2013-03-20 03:00:00,
2013-03-19 23:10:00,38.4,27.0,29.77,NW,309,2.0,0.0,65,0.00,,,0.32,oem by Ross Wheeler,2013-03-20 03:10:00,
2013-03-19 23:15:00,38.7,27.0,29.77,NW,311,3.0,0.0,63,0.00,,,0.32,oem by Ross Wheeler,2013-03-20 03:15:00,
2013-03-19 23:25:00,39.1,24.0,29.77,WNW,294,6.0,0.0,56,0.00,,,0.32,oem by Ross Wheeler,2013-03-20 03:25:00,
2013-03-19 23:30:00,39.3,22.0,29.77,NW,312,2.0,0.0,50,0.00,,,0.32,oem by Ross Wheeler,2013-03-20 03:30:00,
2013-03-19 23:40:00,39.1,20.0,29.77,WNW,295,8.0,0.0,47,0.00,,,0.32,oem by Ross Wheeler,2013-03-20 03:40:00,
2013-03-19 23:45:00,38.7,19.0,29.78,West,275,3.0,0.0,45,0.00,,,0.32,oem by Ross Wheeler,2013-03-20 03:45:00,
2013-03-19 23:55:00,38.5,19.0,29.78,NW,308,3.0,0.0,46,0.00,,,0.32,oem by Ross Wheeler,2013-03-20 03:55:00,